Date,TemperatureHighF,TemperatureAvgF,TemperatureLowF,DewpointHighF,DewpointAvgF,DewpointLowF,HumidityHigh,HumidityAvg,HumidityLow,PressureMaxIn,PressureMinIn,WindSpeedMaxMPH,WindSpeedAvgMPH,GustSpeedMaxMPH,PrecipitationSumIn
2014-2-1,39,32,24,31,24,20,96,74,56,30.34,29.99,8,1,15,0.00
2014-2-2,42,37,33,36,33,29,91,83,74,30.08,29.85,12,3,14,0.04
2014-2-3,32,26,19,28,19,15,86,74,65,30.31,30.08,7,1,11,0.00
2014-2-4,30,22,15,16,14,11,85,70,49,30.47,30.30,7,1,11,0.00
2014-2-5,24,21,19,20,18,13,94,87,64,30.34,29.73,4,1,10,0.00
2014-2-6,22,14,4,16,7,2,90,77,55,30.28,29.99,14,2,18,0.00
2014-2-7,25,16,9,10,7,3,84,66,52,30.24,30.15,19,4,19,0.00
2014-2-8,23,15,8,7,3,-1,69,60,44,30.29,30.18,12,3,19,0.00
2014-2-9,23,17,12,18,11,6,94,77,60,30.20,29.96,3,0,5,0.00
2014-2-10,19,15,10,17,10,5,94,79,60,30.21,29.93,11,3,16,0.00
2014-2-11,16,10,3,7,3,-3,88,73,55,30.50,30.21,10,3,16,0.00
2014-2-12,29,11,-1,2,-2,-6,81,58,29,30.61,30.44,6,-11,10,0.00
2014-2-13,31,21,12,30,18,-1,99,88,55,30.44,29.19,7,1,11,0.00
2014-2-14,31,26,21,31,24,20,99,92,81,29.71,28.95,16,6,24,0.00
2014-2-15,30,26,24,26,23,20,96,87,77,29.85,29.61,15,2,22,0.00
2014-2-16,23,17,10,20,8,-2,88,67,50,30.02,29.62,17,6,28,0.00
2014-2-17,20,11,5,-2,-4,-6,64,50,35,30.47,30.03,13,4,20,0.00
2014-2-18,21,15,4,20,9,-6,95,80,52,30.43,30.08,6,1,13,0.00
2014-2-19,31,24,17,30,22,16,99,94,87,30.18,29.85,10,1,18,0.00
2014-2-20,39,35,31,32,30,24,98,83,58,30.26,29.94,6,1,18,0.02
2014-2-21,35,33,31,35,32,31,100,98,90,30.18,29.79,5,2,12,0.13
2014-2-22,47,39,34,32,24,16,86,57,38,29.98,29.86,15,5,24,0.00
2014-2-23,46,39,34,28,21,12,65,49,26,30.00,29.82,10,3,17,0.00
2014-2-24,34,23,14,17,10,6,76,59,42,29.98,29.79,19,6,24,0.00
2014-2-25,19,14,10,10,5,1,85,67,49,30.01,29.95,14,4,22,0.00
2014-2-26,20,13,6,10,3,-5,80,65,42,29.99,29.84,15,5,23,0.00
2014-2-27,20,12,4,12,0,-6,88,61,43,29.97,29.67,12,3,22,0.00
2014-2-28,17,7,-1,0,-10,-12,79,47,27,30.53,29.98,17,3,25,0.00